CW0009 Weather Reports


Display with metric or nautical units.
time (UTC)temp
F
wind
direction
speed
MPH
gust
MPH
rain 1hr
in
rain 24hr
in
rain mn
in
humidity
%
barometer
mb
20200220072012 45 215 13.0 14.0 0.00 0.01 0.00 73 1015.0
20200220070010 45 215 10.0 12.0 0.00 0.01 0.00 73 1015.0
20200220065014 45 215 12.0 14.0 0.00 0.01 0.00 73 1015.0
20200220064013 45 225 12.0 14.0 0.00 0.01 0.00 73 1015.0
20200220063035 45 215 12.0 13.0 0.00 0.01 0.00 73 1015.0
20200220062013 45 215 10.0 16.0 0.00 0.01 0.00 73 1015.0
20200220061015 45 215 10.0 12.0 0.00 0.01 0.00 73 1015.0
20200220060011 45 210 12.0 14.0 0.00 0.01 0.00 73 1015.0
20200220055013 45 220 10.0 14.0 0.00 0.01 0.00 73 1015.0
20200220054034 45 205 10.0 12.0 0.00 0.01 0.00 73 1015.0
20200220053034 45 215 9.0 12.0 0.00 0.01 0.00 73 1015.0
20200220052012 45 210 9.0 10.0 0.00 0.01 0.00 73 1015.0
20200220051013 45 210 12.0 13.0 0.00 0.01 0.00 73 1015.0
20200220050011 45 210 12.0 13.0 0.00 0.01 0.00 73 1015.0
20200220045012 45 210 12.0 13.0 0.00 0.01 0.00 73 1015.0
20200220043012 45 220 10.0 14.0 0.00 0.01 0.00 73 1015.0
20200220042033 45 215 10.0 12.0 0.00 0.01 0.00 73 1015.0
20200220041014 45 210 10.0 13.0 0.00 0.01 0.00 73 1015.0
20200220040010 45 210 10.0 14.0 0.00 0.01 0.00 73 1015.0
20200220035013 45 210 12.0 14.0 0.00 0.01 0.00 73 1015.0
20200220034034 45 210 10.0 12.0 0.00 0.01 0.00 73 1016.0
20200220033013 45 220 9.0 10.0 0.00 0.01 0.00 73 1016.0
20200220032013 45 225 10.0 14.0 0.00 0.01 0.00 73 1016.0
20200220030011 45 210 10.0 14.0 0.00 0.01 0.00 73 1016.0
20200220025013 45 215 9.0 13.0 0.00 0.01 0.00 73 1016.0
20200220024014 45 210 10.0 13.0 0.00 0.01 0.00 73 1016.0
20200220023013 45 215 10.0 12.0 0.00 0.03 0.00 73 1016.0
20200220022012 45 220 10.0 12.0 0.00 0.03 0.00 73 1016.0
20200220021013 45 220 9.0 12.0 0.00 0.03 0.00 73 1017.0
20200220020011 45 215 8.0 12.0 0.00 0.03 0.00 73 1017.0
20200220015013 45 225 9.0 7.0 0.00 0.03 0.00 72 1017.0
20200220014034 45 215 13.0 13.0 0.00 0.03 0.00 73 1017.0
20200220012012 45 220 12.0 14.0 0.00 0.03 0.00 73 1017.0
20200220011035 45 210 10.0 14.0 0.00 0.09 0.00 73 1017.0
20200220010032 44 220 9.0 9.0 0.00 0.09 0.00 73 1017.0
20200220005013 44 220 12.0 12.0 0.00 0.09 0.00 73 1017.0
20200220004035 44 230 13.0 13.0 0.00 0.09 0.00 73 1017.0
20200220003014 44 200 13.0 16.0 0.00 0.09 0.00 72 1017.0
20200220002012 44 205 12.0 14.0 0.00 0.09 0.00 72 1018.0
20200220001036 44 210 12.0 14.0 0.00 0.09 0.00 72 1017.0
20200220000011 44 210 13.0 14.0 0.00 0.09 0.00 72 1018.0
20200219235013 44 205 12.0 15.0 0.00 0.09 0.00 71 1018.0
20200219234014 44 205 11.0 15.0 0.00 0.09 0.00 71 1018.0
20200219232014 44 180 12.0 13.0 0.00 0.11 0.00 71 1018.0
20200219231014 44 200 10.0 13.0 0.00 0.11 0.00 70 1018.0
20200219230011 44 210 10.0 10.0 0.00 0.11 0.13 70 1018.0
20200219225014 44 220 10.0 12.0 0.01 0.11 0.13 70 1018.0
20200219224014 44 215 11.0 13.0 0.01 0.11 0.13 70 1018.0
20200219223014 43 210 12.0 12.0 0.01 0.13 0.13 70 1019.0
20200219222014 43 195 12.0 14.0 0.01 0.13 0.13 69 1019.0
20200219221013 43 210 12.0 14.0 0.01 0.13 0.13 69 1019.0
20200219220012 43 210 12.0 14.0 0.01 0.13 0.13 69 1019.0
20200219215012 43 210 12.0 14.0 0.00 0.11 0.11 69 1019.0
20200219214013 43 210 12.0 13.0 0.00 0.11 0.11 68 1019.0
20200219213014 43 210 12.0 14.0 0.00 0.11 0.11 68 1019.0
20200219212034 43 210 12.0 16.0 0.00 0.11 0.11 68 1019.0
20200219211013 43 200 12.0 16.0 0.00 0.11 0.11 68 1019.0
20200219210011 43 200 12.0 13.0 0.00 0.11 0.11 68 1019.0
20200219205013 43 215 10.0 14.0 0.00 0.11 0.11 68 1019.0
20200219203035 43 210 10.0 10.0 0.00 0.11 0.11 67 1020.0
20200219202014 43 220 10.0 15.0 0.00 0.11 0.11 67 1020.0
20200219201013 43 215 9.0 12.0 0.00 0.11 0.11 66 1020.0
20200219200011 43 215 8.0 10.0 0.00 0.11 0.11 66 1020.0
20200219195035 43 210 9.0 10.0 0.00 0.11 0.11 65 1020.0
20200219194013 43 215 9.0 10.0 0.00 0.11 0.11 65 1020.0
20200219193014 43 210 8.0 9.0 0.00 0.11 0.11 65 1020.0
20200219192013 43 215 8.0 9.0 0.00 0.11 0.11 64 1020.0
20200219185013 43 225 9.0 8.0 0.00 0.11 0.11 63 1020.0
20200219184013 44 225 9.0 12.0 0.00 0.11 0.11 63 1021.0
20200219183014 44 220 9.0 10.0 0.00 0.11 0.11 63 1021.0
20200219182013 44 240 10.0 10.0 0.00 0.11 0.11 63 1021.0
20200219181014 44 230 9.0 15.0 0.00 0.11 0.11 61 1021.0
20200219180011 44 235 7.0 12.0 0.00 0.11 0.11 61 1021.0
20200219175014 44 220 6.0 10.0 0.00 0.11 0.11 59 1021.0
20200219174013 44 215 3.0 6.0 0.00 0.11 0.11 59 1021.0
20200219173013 44 200 5.0 5.0 0.00 0.11 0.11 58 1021.0
20200219172034 44 215 6.0 6.0 0.00 0.11 0.11 58 1021.0
20200219171034 44 225 6.0 7.0 0.00 0.11 0.11 58 1021.0
20200219170033 44 220 7.0 7.0 0.00 0.11 0.11 58 1021.0
20200219165012 44 215 7.0 8.0 0.00 0.11 0.11 58 1021.0
20200219164014 44 235 7.0 8.0 0.00 0.11 0.11 58 1021.0
20200219163013 44 230 8.0 10.0 0.00 0.11 0.11 58 1021.0
20200219161012 45 240 7.0 10.0 0.00 0.11 0.11 58 1021.0
20200219160032 45 245 7.0 8.0 0.00 0.11 0.11 58 1021.0
20200219155013 45 235 8.0 7.0 0.00 0.11 0.11 58 1021.0
20200219154013 45 235 12.0 10.0 0.00 0.11 0.11 58 1021.0
20200219153014 45 235 12.0 15.0 0.00 0.11 0.11 58 1021.0
20200219152012 45 225 13.0 13.0 0.00 0.11 0.11 58 1021.0
20200219151035 46 235 12.0 15.0 0.00 0.11 0.11 58 1021.0
20200219150010 46 240 10.0 14.0 0.00 0.11 0.11 58 1021.0
20200219145012 46 235 12.0 12.0 0.00 0.11 0.11 58 1021.0
20200219144035 46 245 14.0 15.0 0.00 0.11 0.11 58 1021.0
20200219143013 46 260 12.0 16.0 0.00 0.11 0.11 58 1021.0
20200219142013 46 280 12.0 16.0 0.00 0.11 0.11 58 1021.0
20200219141013 46 250 13.0 15.0 0.00 0.11 0.11 58 1021.0
20200219140032 46 255 13.0 15.0 0.00 0.11 0.11 58 1021.0
20200219135034 46 235 13.0 14.0 0.00 0.11 0.11 58 1021.0
20200219134013 46 275 12.0 16.0 0.00 0.11 0.11 58 1021.0
20200219133013 46 245 10.0 14.0 0.00 0.11 0.11 59 1021.0
20200219132034 46 225 9.0 14.0 0.00 0.11 0.11 59 1021.0
20200219131012 46 235 10.0 10.0 0.00 0.11 0.11 59 1021.0
20200219130011 46 250 12.0 12.0 0.00 0.11 0.11 59 1021.0
20200219125012 46 235 14.0 16.0 0.00 0.11 0.11 61 1021.0
20200219124013 46 235 13.0 17.0 0.00 0.11 0.11 61 1021.0
20200219122012 46 250 10.0 10.0 0.00 0.11 0.11 63 1021.0
20200219121014 46 280 10.0 13.0 0.00 0.11 0.11 63 1021.0
20200219120011 45 265 10.0 10.0 0.00 0.11 0.11 63 1021.0
20200219115013 45 270 12.0 12.0 0.00 0.11 0.11 64 1021.0
20200219114012 45 280 13.0 14.0 0.00 0.11 0.11 64 1021.0
20200219113013 46 275 12.0 14.0 0.00 0.11 0.11 65 1021.0
20200219112013 46 285 12.0 13.0 0.00 0.11 0.11 66 1021.0
20200219111014 46 235 11.0 13.0 0.00 0.11 0.11 67 1021.0
20200219110011 45 260 13.0 15.0 0.00 0.11 0.11 68 1020.0
20200219105034 45 265 13.0 16.0 0.00 0.11 0.11 68 1020.0
20200219104013 45 245 13.0 16.0 0.00 0.11 0.11 69 1020.0
20200219103019 45 270 13.0 16.0 0.00 0.11 0.11 70 1020.0
20200219102013 44 260 12.0 14.0 0.00 0.11 0.11 70 1020.0
20200219101013 44 250 10.0 10.0 0.00 0.11 0.11 71 1020.0
20200219100011 43 250 10.0 12.0 0.00 0.11 0.11 72 1020.0
20200219095012 43 280 10.0 14.0 0.00 0.11 0.11 73 1020.0
20200219094013 42 275 10.0 12.0 0.00 0.11 0.11 73 1020.0
20200219093012 41 265 10.0 13.0 0.00 0.11 0.11 73 1020.0
20200219092013 41 255 10.0 14.0 0.00 0.11 0.11 73 1020.0
20200219091035 40 260 9.0 14.0 0.00 0.11 0.11 73 1020.0
20200219090011 40 240 9.0 13.0 0.00 0.11 0.11 73 1019.0
20200219085034 40 270 9.0 13.0 0.00 0.11 0.11 73 1019.0
20200219084012 40 255 9.0 9.0 0.00 0.11 0.11 73 1019.0
20200219083034 39 270 9.0 10.0 0.00 0.11 0.11 73 1019.0
20200219082012 39 260 9.0 9.0 0.00 0.11 0.11 73 1019.0
20200219081014 39 270 9.0 13.0 0.00 0.11 0.11 74 1019.0
20200219080011 39 270 8.0 9.0 0.00 0.11 0.11 74 1019.0
20200219075012 39 260 8.0 9.0 0.00 0.11 0.11 74 1019.0
20200219074035 39 265 8.0 9.0 0.00 0.11 0.11 74 1019.0
20200219073013 39 275 8.0 9.0 0.00 0.11 0.11 74 1018.0